Volver al catálogo

QIANFAN-200

ActivoComunicacionesPO
NORAD 69418·PAYLOAD·🇨🇳 China

Lanzado Jun 5, 2026 desde Wenchang Space Launch Site

Loading…

Próximos Pases (próximas 24 horas)

TLE

ActualizadoSource: Space-Track

Época: Sep 14, 2026, 20:42 UTC

1 69418U 26125T   26257.86319124  .00000007  00000-0 -74528-5 0  9999
2 69418  88.9884 270.8939 0001956 106.0320 254.1046 13.51026168 14051

Sigue QIANFAN-200 en tiempo real con AllMySat

Download on the App Store